Location: Gebenbach
(49.5378°N, 11.8735°E)
Time: 11:16:22
(UTC+00:00)

Cosmos 2263 Rocket - Pass Details

Date: 29 October 2020
Orbit: 822 x 850 km, 71.0° (Epoch: 24 November)

Event Time Altitude Azimuth Distance (km) Brightness Sun altitude
Rises 16:53:04 0° 334° (NNW) 3,420 5.6 -9.9°
Reaches altitude 10° 16:56:07 10° 350° (N) 2,484 4.7 -10.4°
Maximum altitude 17:00:28 22° 39° (NE) 1,790 3.5 -11.1°
Enters shadow 17:03:22 15° 77° (ENE) 2,127 3.6 -11.6°
